Location: Newark
(43.6583°N, 1.6617°E)
Time: 22:14:22
(UTC+00:00)

Tiros 1 - Pass Details

Date: 27 August 2019
Orbit: 630 x 664 km, 48.4° (Epoch: 20 September)

Event Time Altitude Azimuth Distance (km) Brightness Sun altitude
Rises 04:50:08 0° 288° (WNW) 2,936 10.0 -4.4°
Reaches altitude 10° 04:52:50 10° 275° (W) 2,029 9.1 -4.0°
Maximum altitude 04:56:30 23° 223° (SW) 1,356 8.3 -3.3°
Drops below altitude 10° 05:00:12 10° 170° (S) 2,037 9.7 -2.7°
Sets 05:02:55 0° 156° (SSE) 2,950 10.6 -2.2°
